Location: S�tio Afonso Gruber
(26.1760°S, 49.5250°W)
Time: 00:16:42
(UTC+00:00)

Cosmos 2016 Rocket - Pass Details

Date: 03 October 2020
Orbit: 946 x 1001 km, 83.0° (Epoch: 27 October)

Event Time Altitude Azimuth Distance (km) Brightness Sun altitude
Rises 07:57:38 0° 341° (NNW) 3,628 6.7 -13.6°
Reaches altitude 10° 08:00:12 10° 335° (NNW) 2,696 6.0 -13.0°
Maximum altitude 08:06:07 47° 262° (W) 1,271 4.2 -11.7°
Drops below altitude 10° 08:12:12 10° 189° (S) 2,762 6.4 -10.4°
Sets 08:14:52 0° 183° (S) 3,725 7.1 -9.8°
